Tracking 20083 objects as of 12-Dec-2019
HD Live streaming from Space Station
objects crossing your sky now

FENGYUN 1C DEB

Track FENGYUN 1C DEB now!
10-day predictions


NORAD ID: 37415
Int'l Code: 1999-025EGH
Perigee: 862.0 km
Apogee: 1,293.8 km
Inclination: 99.0 °
Period: 106.6 minutes
Semi major axis: 7448 km
RCS: 0.0105 m2 (small)
Launch date: May 10, 1999
Source: People's Republic of China (PRC)
Launch site: Taiyaun Space Center, China (TSC)

Note: This is SATELLITE DEBRIS
aabbcc
Your satellite tracking list
Your tracking list is empty




NASA's NSSDC Master Catalog

Two Line Element Set (TLE):
1 37415U 99025EGH 19346.03814032  .00000173  00000-0  25450-3 0  9999
2 37415  98.9725 279.6814 0289851  15.9598 345.0441 13.50413287613284
Source of the keplerian elements: AFSPC